Location: Austin
(30.3000°N, 97.7500°W)
Time: 11:23:18
(UTC-05:00)

Cosmos 1844 Rocket - Pass Details

Date: 03 April 2024
Orbit: 824 x 844 km, 71.0° (Epoch: 22 April)

Event Time Altitude Azimuth Distance (km) Brightness Sun altitude
Rises 04:11:06 0° 353° (N) 3,385 6.2 -38.1°
Reaches altitude 10° 04:13:55 10° 6° (N) 2,444 5.5 -37.6°
Maximum altitude 04:18:39 27° 63° (ENE) 1,530 4.5 -36.8°
Drops below altitude 10° 04:23:19 10° 121° (ESE) 2,423 5.3 -35.9°
Sets 04:26:05 0° 133° (SE) 3,351 6.0 -35.4°
